UPPER STAGE R/B, 60424

Orbit data source: Space-Track

UPPER STAGE R/B, 60424 is space debris in HEO originally from a launch on Mon, 12 Aug 2024 UTC launched from the Air Force Western Test Range (AFWTR). Debris objects in space refer to the collection of defunct objects orbiting the Earth. Examples of debris include non-operational satellites, rocket bodies, and fragments generated from explosions, collisions, or faulty payload assembly.

Loading next visibility...
UPPER STAGE R/B details
Identifier
60424, 2024-143C
Orbit
HEO
Last TLE update17 hours ago
Origin
Flag of NOSpaceX (NO / NOR)
ManufacturerSpaceX
MissionSpacecraft
Bus & MotorF9ST2, Unknown motor
Mass~3,000 kg wet, ~3,000 kg dry
Launch date (UTC)
2024-08-12 (4 months ago)
Launch vehicleUnknown
Launch site
Air Force Western Test Range (AFWTR)
Object type
Payload
Rocket body
Debris
Shape & HBRUnknown
Radar Cross SectionLarge (>1 m²)

Expand to show TLE details & history

TLE from 17 hours ago
0 UPPER STAGE R/B
1 60424U 24143C   24361.24088228  .00010051  00000-0  13810-2 0  9992
2 60424  62.3515 340.6805 4766960 274.9460  34.3294  6.02443988  8171
Epoch: 2024-12-26T05:46Z
Definitive object data (Epoch: 2024-12-26T05:46:52.228Z)
Latitude-0.00002°
Longitude158.73364°
Altitude3,096.918 km
Speed7.274 km/s
True Right ascension22h 42m 41s
True Declination0° 00' 00"
Sunlit
Object was in daylight at TLE epoch
Visualization TLE readout
Latitude58.83067°
Longitude-141.93688°
Altitude11,481.975 km
Speed3.664 km/s
Apparent Right ascension04h 46m 12s
Apparent Declination52° 20' 21"
Sunlit
Object is in daylight
Visualization observer readout
Local Sidereal Time22:10:58
Azimuth42.142° NE
Elevation25.861°
Doppler factor1
Orbital elements
Apogee altitude12,460.587 km
Perigee altitude297.834 km
Semi-major axis12,757.347 km
Eccentricity0.476696
Inclination62.3515°
RAAN340.6805°
Arg. of periapsis274.946°
True anomaly85.11154°
Mean anomaly34.3294°
Eccentric anomaly57.31792°
Mean motion1.50627 °/min
BSTAR0.001381
Orbital period239 mins
Loading maneuver chart data...
Loading historical data...
Loading historical data...
Loading historical data...
Loading historical data...
Loading historical data...
Loading historical data...
Loading historical data...
Other satellites on launch #143 in the year 2024 (2024-08-12 UTC)

UPPER STAGE R/B Visibility forecast

Observer location: undefined°, undefined

Span
Click to sort rows by Start time (UTC) header in descending order
Start Az.
Max El. time (UTC)
Max El. Az.
Max El.
End time (UTC)
End Az.
33 mins2024-12-26 22:47:45.433Z42.174° NE2024-12-26 22:47:45.433Z42.174° NE23.565°2024-12-26 23:20:45.433Z32.214° NE
144 mins2024-12-27 01:47:45.433Z233.291° WSW2024-12-27 02:22:45.433Z317.784° NNW43.427°2024-12-27 04:11:45.433Z60.293° ENE
150 mins2024-12-27 06:15:45.433Z300.436° NW2024-12-27 08:00:45.433Z44.741° NE43.304°2024-12-27 08:45:45.433Z128.488° SE
108 mins2024-12-27 10:58:45.433Z327.119° NNW2024-12-27 12:14:45.433Z280.787° WNW33.408°2024-12-27 12:46:45.433Z218.926° SW
66 mins2024-12-27 21:41:45.433Z134.194° SE2024-12-27 22:05:45.433Z78.181° E31.336°2024-12-27 22:47:45.433Z39.504° NE
|